Погода в Бабке

Россия / Пермский край     57°05′05″N   54°29′32″E
темп.,
°C
ветер,
м/с
пор.,
м/с
влажн.,
%
обл.,
%
осадки,
мм/ч
давл.,
гПа
погр.,
м
4 декабря, сб
сб423:00−2зюз4109594 0.7 1010435
02:00−1ююз3794100 0.1 1012296
05:000ююз4995100 0.2 1012435
08:00+1ю61498100 0.4 1009571
11:00+2ю71798100 1.1 1007677
14:00+3ююз81986100 0.2 1005928
17:00+2ююз91997100 1.3 10041051
20:00+1юз71597100 3.2 1004948
5 декабря, вс
вс523:000зюз5996100 4.8 1006757
02:00−2юз51092100 0.0 1007488
05:00−2зюз598783 0.1 1009717
08:00−3юз599191 0.1 1010610
11:00−3зюз598781 0.1 1011746
14:00−3зюз5885100 0.1 10121070
17:00−4з4888100 0.2 1014543
20:00−9зсз388760 0.1 1018468
6 декабря, пн
пн623:00−12сз4778100 0.1 1019380
02:00−13сз3577100 0.0 1020368
05:00−13сз358099 0.0 1022368
08:00−15сз34885 0.0 1024251
11:00−15сз23865 0.0 1025224
14:00−13сз348366 0.0 1027324
17:00−14сз24905 0.0 1028222
20:00−14ссз24925 0.0 1030201
7 декабря, вт
вт723:00−15сз11925 0.0 103182
02:00−15зсз11925 0.0 103260
05:00−15сз11925 0.0 103348
08:00−15з11925 0.0 103425
11:00−14ссв11875 0.0 103566
14:00−12всв118252 0.0 1035150
17:00−13всв119365 0.0 103612
20:00−13вюв1292100 0.0 103665
8 декабря, ср
ср823:00−11юв2483100 0.0 1035153
02:00−10вюв3683100 0.0 1034216
05:00−9юв41089100 0.3 1033289
08:00−8юв61389100 0.6 1030353
11:00−7юв71694100 1.6 1028428
14:00−4ю71695100 2.9 1025523
17:00−1ю71694100 5.5 1024595
20:00+1ююз71693100 0.1 1024653